Temp
17 18 18 18 19 19 18 18 18 16 15 15 15 15 15 14 14 14 13 13 14 14
15 15 16 16 16 16 16 16 15 15 15 15 15 14 14 13 13 13 13 13 13 13
16 15 16 16 16 15 15 15 14 14 14 14 14 13 13 13 13 13 12 12 12 12
15 14 14 15 15 15 14 14 13 13 13 12 12 12 12 12 12 12 12 12 11 11
13 13 14 14 14 13 13 12 12 12 11 11 11 11 11 11 11 11 11 10 10 10
13 13 13 13 12 12 12 12 12 11 11 10 10 10 10 10 11 10 10 9 9 9
12 12 12 12 11 11 11 11 11 11 10 10 10 10 10 9 9 9 9 8 8 8
11 11 10 10 10 10 10 10 10 10 10 9 9 9 9 8 8 8 7 7 6 6
10 10 10 10 9 9 9 9 9 8 8 8 8 8 8 7 7 7 7 6 5 5
10 10 10 9 9 8 8 8 8 8 8 7 7 7 7 7 7 6 6 6 5 5
9 9 9 9 9 8 8 8 7 7 7 7 7 7 7 6 5 5 5 5 4 4
8 8 8 9 8 8 8 7 7 7 6 6 6 6 6 5 4 3 3 3 4 3
7 7 7 7 7 8 7 7 6 6 5 5 5 5 5 4 3 3 2 2 3 3
7 7 6 6 6 6 6 5 5 5 5 5 5 5 4 4 3 3 3 2 3 3
Height
761 763 762 766 767 767 768 768 770 773 776 777 778 780 783 786 789 791 796 797 795 797
759 760 759 760 760 765 766 766 768 768 771 774 775 777 780 780 785 787 789 793 794 795
758 759 759 760 760 761 764 762 764 766 769 769 770 774 776 778 779 784 786 786 793 793
759 758 759 758 760 759 760 760 762 763 764 766 768 770 772 776 776 778 781 784 787 791
759 759 759 759 758 758 759 761 761 761 761 766 766 768 770 772 775 778 780 782 785 787
758 757 756 757 756 757 757 760 760 759 762 763 766 767 769 772 773 776 778 780 782 785
756 756 755 755 755 754 758 759 759 759 759 762 763 764 766 770 772 774 776 779 782 783
756 755 753 754 754 755 757 758 758 759 759 759 760 762 763 768 770 773 776 777 779 780
756 755 755 753 753 755 756 756 757 759 760 760 759 760 761 764 769 771 773 776 775 776
753 753 755 754 754 754 754 754 754 755 755 756 757 757 759 763 767 768 771 773 773 774
753 752 754 754 753 752 751 752 751 751 751 750 752 751 756 760 761 763 765 768 772 774
753 753 751 749 748 747 747 748 748 748 747 748 748 749 752 753 757 760 762 765 766 766
755 750 748 743 744 745 744 742 741 744 744 744 746 745 748 750 755 755 757 758 761 762
752 749 746 744 742 740 738 739 739 737 738 738 739 741 743 745 749 752 752 753 754 756
Wind_Speed
25 27 29 27 23 22 23 25 25 27 29 26 26 22 21 21 22 21 20 18 16 15
6 8 7 8 11 13 12 14 14 16 23 23 22 23 24 24 22 20 19 16 14 13
1 2 4 5 7 7 8 11 14 16 18 25 23 24 23 22 21 20 18 16 14 13
3 3 4 4 5 6 8 10 12 15 16 18 19 22 22 21 20 19 17 15 14 13
2 2 4 4 4 4 4 6 8 10 13 15 17 17 17 19 18 18 16 14 14 13
4 4 3 3 3 5 5 7 9 11 13 14 16 17 16 16 15 15 13 13 13 13
6 5 3 4 4 4 5 7 8 10 12 13 15 14 14 14 13 13 13 13 13 11
7 7 6 6 5 6 7 7 8 9 11 11 13 15 15 15 13 13 12 12 11 12
8 7 7 7 8 9 10 11 11 12 12 13 13 15 17 15 14 14 13 13 11 10
12 10 10 10 11 12 12 12 14 14 14 15 14 16 19 18 13 13 13 12 12 11
13 13 12 12 14 14 14 15 16 16 16 15 16 16 19 19 17 17 16 15 13 13
16 16 16 15 14 14 14 15 17 16 17 18 16 18 20 20 17 14 15 15 15 13
14 14 15 15 16 17 17 16 15 20 20 19 18 17 21 21 18 17 16 14 13 15
13 14 15 16 16 16 16 17 19 21 22 21 20 17 21 22 20 18 17 17 13 13
Wind_Direction
242 239 242 240 237 239 232 237 243 238 237 235 230 228 218 214 211 213 219 218 218 229
221 225 233 231 227 234 221 212 222 228 225 217 213 202 202 208 210 206 210 221 222 220
308 276 265 246 238 238 242 233 219 211 208 210 204 212 208 205 205 205 208 208 214 218
343 324 288 279 258 242 236 230 218 212 205 206 205 201 202 209 204 202 206 208 211 222
12 312 302 284 271 262 243 224 211 202 198 203 203 197 198 199 197 199 203 208 211 219
346 325 296 278 260 242 215 208 199 193 194 196 201 198 199 206 201 205 210 216 216 216
335 311 287 264 260 241 226 214 203 196 192 193 196 193 194 201 202 201 201 207 210 212
327 305 294 270 235 226 220 213 210 202 197 196 196 198 196 197 194 196 198 207 206 211
333 304 265 250 242 232 224 215 207 205 205 200 199 208 197 196 196 196 200 204 206 212
343 327 296 266 244 234 229 221 217 211 205 207 206 215 202 197 196 204 206 209 206 206
338 329 311 277 255 243 231 225 221 219 215 210 208 218 208 206 206 210 210 206 210 214
331 323 317 301 278 261 244 231 226 224 219 214 210 220 210 206 207 220 228 226 222 214
302 304 305 303 293 275 254 244 238 230 224 220 214 222 210 209 205 207 213 211 215 224
303 303 304 304 293 273 258 249 248 245 242 236 230 221 216 211 209 215 208 213 212 223